| time (UTC) | temp C | wind direction | speed KPH | gust KPH | rain 1hr cm | rain 24hr cm | rain mn cm | humidity % | barometer mb |
| 20260905091602 | 25 | 148 | 0.0 | 0.0 | 0.00 | 0.36 | 0.00 | 90 | 1012.8 |
| 20260905084602 | 25 | 148 | 0.0 | 0.0 | 0.00 | 0.36 | 0.00 | 89 | 1012.7 |
| 20260905083103 | 25 | 148 | 0.0 | 3.2 | 0.00 | 0.36 | 0.00 | 89 | 1012.7 |
| 20260905081603 | 25 | 148 | 1.6 | 3.2 | 0.00 | 0.38 | 0.00 | 89 | 1012.7 |
| 20260905080809 | 25 | 148 | 0.0 | 0.0 | 0.00 | 0.38 | 0.00 | 89 | 1012.6 |
| 20260905075255 | 25 | 148 | 0.0 | 3.2 | 0.00 | 0.41 | 0.00 | 89 | 1012.8 |
| 20260905073103 | 25 | 148 | 0.0 | 3.2 | 0.00 | 0.43 | 0.00 | 88 | 1012.9 |
| 20260905071602 | 25 | 148 | 0.0 | 0.0 | 0.00 | 0.43 | 0.00 | 88 | 1012.9 |
| 20260905071512 | 25 | 148 | 0.0 | 0.0 | 0.00 | 0.43 | 0.00 | 88 | 1013.1 |
| 20260905065948 | 25 | 148 | 0.0 | 0.0 | 0.00 | 0.43 | 0.00 | 87 | 1013.3 |
| 20260905063102 | 25 | 148 | 0.0 | 3.2 | 0.00 | 0.43 | 0.00 | 87 | 1013.3 |
| 20260905061603 | 25 | 148 | 0.0 | 0.0 | 0.00 | 0.43 | 0.00 | 87 | 1013.4 |
| 20260905054602 | 26 | 148 | 0.0 | 0.0 | 0.00 | 0.43 | 0.00 | 86 | 1013.3 |
| 20260905053102 | 26 | 148 | 0.0 | 0.0 | 0.00 | 0.43 | 0.00 | 86 | 1013.5 |
| 20260905051602 | 26 | 148 | 0.0 | 4.8 | 0.00 | 0.43 | 0.00 | 87 | 1013.4 |
| 20260905044602 | 26 | 148 | 0.0 | 0.0 | 0.00 | 0.43 | 0.43 | 87 | 1013.3 |
| 20260905043102 | 26 | 148 | 0.0 | 3.2 | 0.00 | 0.43 | 0.43 | 86 | 1013.3 |
| 20260905041602 | 26 | 148 | 0.0 | 3.2 | 0.00 | 0.43 | 0.43 | 86 | 1013.5 |
| 20260905034602 | 26 | 148 | 0.0 | 3.2 | 0.00 | 0.43 | 0.43 | 84 | 1013.5 |
| 20260905033102 | 26 | 148 | 0.0 | 0.0 | 0.00 | 0.43 | 0.43 | 83 | 1013.6 |
| 20260905031602 | 27 | 148 | 0.0 | 3.2 | 0.00 | 0.43 | 0.43 | 82 | 1013.5 |
| 20260905024602 | 27 | 148 | 0.0 | 0.0 | 0.00 | 0.43 | 0.43 | 82 | 1013.6 |
| 20260905023049 | 27 | 148 | 0.0 | 3.2 | 0.00 | 0.43 | 0.43 | 82 | 1013.4 |
| 20260905021545 | 27 | 148 | 0.0 | 8.0 | 0.00 | 0.43 | 0.43 | 82 | 1013.4 |
| 20260905020732 | 27 | 145 | 0.0 | 3.2 | 0.00 | 0.43 | 0.43 | 81 | 1013.2 |
| 20260905014541 | 27 | 145 | 0.0 | 3.2 | 0.00 | 0.43 | 0.43 | 81 | 1012.9 |
| 20260905013038 | 27 | 145 | 0.0 | 0.0 | 0.00 | 0.43 | 0.43 | 80 | 1012.7 |
| 20260905012234 | 28 | 145 | 0.0 | 0.0 | 0.00 | 0.43 | 0.43 | 79 | 1012.5 |
| 20260905010035 | 28 | 145 | 0.0 | 0.0 | 0.00 | 0.43 | 0.43 | 76 | 1012.5 |
| 20260905005225 | 28 | 145 | 0.0 | 0.0 | 0.00 | 0.43 | 0.43 | 75 | 1012.4 |
| 20260905003032 | 29 | 145 | 0.0 | 3.2 | 0.00 | 0.43 | 0.43 | 73 | 1012.2 |
| 20260905001532 | 29 | 145 | 0.0 | 3.2 | 0.00 | 0.43 | 0.43 | 72 | 1012.3 |
| 20260905000031 | 30 | 145 | 0.0 | 11.3 | 0.00 | 0.43 | 0.43 | 70 | 1012.2 |
| 20260904234531 | 30 | 148 | 4.8 | 11.3 | 0.00 | 0.43 | 0.43 | 69 | 1012.1 |
| 20260904233032 | 30 | 149 | 4.8 | 11.3 | 0.00 | 0.43 | 0.43 | 68 | 1012.2 |
| 20260904232921 | 30 | 164 | 4.8 | 11.3 | 0.00 | 0.43 | 0.43 | 69 | 1012.4 |
| 20260904230029 | 30 | 161 | 4.8 | 17.7 | 0.00 | 0.43 | 0.43 | 70 | 1012.4 |
| 20260904224528 | 30 | 144 | 6.4 | 22.5 | 0.00 | 0.43 | 0.43 | 71 | 1012.4 |
| 20260904223025 | 30 | 190 | 12.9 | 25.7 | 0.00 | 0.43 | 0.43 | 69 | 1012.5 |
| 20260904221525 | 30 | 240 | 0.0 | 8.0 | 0.00 | 0.43 | 0.43 | 68 | 1012.3 |
| 20260904220022 | 31 | 243 | 0.0 | 3.2 | 0.00 | 0.43 | 0.43 | 66 | 1012.5 |
| 20260904214519 | 31 | 243 | 0.0 | 8.0 | 0.00 | 0.43 | 0.43 | 66 | 1012.4 |
| 20260904213017 | 31 | 244 | 1.6 | 4.8 | 0.00 | 0.43 | 0.43 | 68 | 1012.5 |
| 20260904211515 | 31 | 245 | 0.0 | 14.5 | 0.00 | 0.43 | 0.43 | 64 | 1012.6 |
| 20260904210714 | 31 | 149 | 4.8 | 17.7 | 0.00 | 0.43 | 0.43 | 66 | 1012.8 |
| 20260904204511 | 31 | 159 | 1.6 | 11.3 | 0.00 | 0.46 | 0.43 | 65 | 1013.1 |
| 20260904203009 | 32 | 183 | 6.4 | 11.3 | 0.00 | 0.48 | 0.43 | 66 | 1013.4 |
| 20260904201507 | 31 | 200 | 4.8 | 8.0 | 0.00 | 0.51 | 0.43 | 71 | 1013.6 |
| 20260904200005 | 30 | 221 | 1.6 | 11.3 | 0.00 | 0.56 | 0.43 | 71 | 1013.6 |
| 20260904194503 | 30 | 180 | 3.2 | 11.3 | 0.00 | 0.66 | 0.43 | 73 | 1013.7 |
| 20260904193003 | 29 | 265 | 3.2 | 14.5 | 0.13 | 0.76 | 0.43 | 76 | 1013.9 |
| 20260904192207 | 28 | 269 | 8.0 | 14.5 | 0.36 | 0.84 | 0.43 | 80 | 1014.1 |
| 20260904190002 | 27 | 175 | 4.8 | 11.3 | 0.36 | 0.56 | 0.43 | 85 | 1014.3 |
| 20260904184503 | 25 | 161 | 0.0 | 11.3 | 0.36 | 0.61 | 0.43 | 87 | 1014.8 |
| 20260904183003 | 25 | 228 | 1.6 | 14.5 | 0.23 | 0.61 | 0.30 | 80 | 1015.5 |
| 20260904181503 | 29 | 241 | 4.8 | 25.7 | 0.00 | 0.64 | 0.08 | 65 | 1015.2 |
| 20260904180004 | 30 | 228 | 3.2 | 14.5 | 0.00 | 0.74 | 0.08 | 71 | 1015.0 |
| 20260904174502 | 31 | 164 | 4.8 | 14.5 | 0.00 | 0.86 | 0.08 | 72 | 1014.9 |
| 20260904173003 | 30 | 133 | 1.6 | 8.0 | 0.00 | 0.97 | 0.08 | 76 | 1014.9 |
| 20260904171504 | 30 | 128 | 3.2 | 8.0 | 0.00 | 1.04 | 0.08 | 79 | 1015.3 |
| 20260904170001 | 30 | 128 | 1.6 | 4.8 | 0.00 | 1.12 | 0.08 | 80 | 1015.3 |
| 20260904164503 | 29 | 128 | 1.6 | 4.8 | 0.00 | 1.50 | 0.08 | 81 | 1015.3 |
| 20260904163005 | 29 | 128 | 3.2 | 4.8 | 0.00 | 1.75 | 0.08 | 82 | 1015.3 |
| 20260904161459 | 29 | 128 | 0.0 | 4.8 | 0.00 | 1.75 | 0.08 | 83 | 1015.2 |
| 20260904160009 | 29 | 128 | 1.6 | 11.3 | 0.00 | 1.75 | 0.08 | 83 | 1015.1 |
| 20260904154456 | 29 | 128 | 4.8 | 14.5 | 0.00 | 1.75 | 0.08 | 84 | 1015.2 |
| 20260904152956 | 28 | 69 | 4.8 | 11.3 | 0.00 | 1.75 | 0.08 | 84 | 1014.9 |
| 20260904152148 | 29 | 31 | 3.2 | 11.3 | 0.00 | 1.75 | 0.08 | 86 | 1014.9 |
| 20260904150701 | 28 | 131 | 3.2 | 11.3 | 0.00 | 1.75 | 0.08 | 88 | 1014.9 |
| 20260904145153 | 27 | 131 | 6.4 | 11.3 | 0.00 | 1.75 | 0.08 | 91 | 1014.9 |
| 20260904143651 | 27 | 128 | 1.6 | 11.3 | 0.00 | 1.75 | 0.08 | 92 | 1014.9 |
| 20260904141454 | 26 | 128 | 4.8 | 8.0 | 0.00 | 1.75 | 0.08 | 92 | 1014.7 |
| 20260904135954 | 26 | 128 | 3.2 | 11.3 | 0.00 | 1.75 | 0.08 | 92 | 1014.6 |
| 20260904134454 | 26 | 128 | 6.4 | 14.5 | 0.00 | 1.75 | 0.08 | 92 | 1014.5 |
| 20260904132953 | 25 | 97 | 1.6 | 4.8 | 0.00 | 1.75 | 0.08 | 92 | 1014.4 |
| 20260904132202 | 25 | 97 | 0.0 | 0.0 | 0.00 | 1.75 | 0.08 | 92 | 1014.2 |
| 20260904130708 | 25 | 97 | 0.0 | 0.0 | 0.00 | 1.75 | 0.08 | 92 | 1014.3 |
| 20260904124452 | 25 | 97 | 0.0 | 4.8 | 0.00 | 1.75 | 0.08 | 92 | 1014.1 |
| 20260904122952 | 25 | 97 | 0.0 | 3.2 | 0.00 | 1.75 | 0.08 | 92 | 1013.9 |
| 20260904121452 | 25 | 97 | 0.0 | 3.2 | 0.00 | 1.75 | 0.08 | 92 | 1013.7 |
| 20260904115951 | 25 | 97 | 0.0 | 3.2 | 0.00 | 1.75 | 0.08 | 92 | 1013.5 |
| 20260904114451 | 25 | 97 | 0.0 | 3.2 | 0.00 | 1.75 | 0.08 | 92 | 1013.4 |
| 20260904113656 | 25 | 97 | 0.0 | 3.2 | 0.00 | 1.75 | 0.08 | 92 | 1013.5 |
| 20260904112147 | 25 | 97 | 0.0 | 3.2 | 0.00 | 1.75 | 0.08 | 92 | 1013.5 |
| 20260904110645 | 25 | 97 | 0.0 | 4.8 | 0.00 | 1.75 | 0.08 | 92 | 1013.4 |
| 20260904105153 | 25 | 97 | 0.0 | 3.2 | 0.00 | 1.75 | 0.08 | 92 | 1013.2 |
| 20260904102949 | 25 | 97 | 0.0 | 3.2 | 0.00 | 1.75 | 0.08 | 92 | 1013.2 |
| 20260904101449 | 25 | 97 | 0.0 | 0.0 | 0.00 | 1.75 | 0.08 | 92 | 1013.0 |
| 20260904095949 | 25 | 97 | 0.0 | 0.0 | 0.00 | 1.75 | 0.08 | 92 | 1013.0 |
| 20260904094448 | 25 | 97 | 0.0 | 0.0 | 0.00 | 1.75 | 0.08 | 92 | 1012.9 |
| 20260904092949 | 25 | 97 | 0.0 | 3.2 | 0.00 | 1.75 | 0.08 | 92 | 1012.8 |